Regional Weather Roundup
Issued by NWS Bismarck, ND

Home | Current Version | Previous Version | Text Only | Print | Product List | Glossary On
Versions: 1 2 3 4 5 6 7 8 9 10 11 12 13 14 15 16 17 18 19 20 21 22 23 24 25 26 27 28 29 30 31 32 33 34 35 36 37 38 39 40 41 42 43 44 45 46 47 48 49 50
000
ASUS43 KBIS 300910
RWRBIS

NWR BROADCAST TEXT
NATIONAL WEATHER SERVICE BISMARCK ND
400 AM CDT THU OCT 30 2014

NOTE: "FAIR" INDICATES FEW OR NO CLOUDS BELOW 12,000 FEET WITH NO
SIGNIFICANT WEATHER AND/OR OBSTRUCTIONS TO VISIBILITY.


CITY           SKY/WX    TMP DP  RH WIND       PRES   REMARKS
WILLISTON      CLOUDY    37  33  85 N12       30.18R
MINOT          CLEAR     29  26  89 NW9       30.12R
MINOT AFB      CLEAR     30  29  99 N12       30.12R
BISMARCK       CLEAR     37  35  92 NW8       30.06R
DICKINSON      CLEAR     33  31  92 W8        30.11R
GARRISON         N/A     32  30  92 NW12      30.09R
HETTINGER ARPT CLEAR     34  31  88 NW10      30.13R
JAMESTOWN      CLEAR     36  34  92 NW8       29.98R
BEACH            N/A     32  32 100 CALM      30.17R
CARRINGTON     FAIR      32  32 100 NW13      30.01R
CROSBY         CLOUDY    36  36 100 N8        30.19R
HARVEY         FAIR      28  28 100 N12       30.05R WCI  18
HAZEN          FAIR      34  32  93 NW6       30.11R
LINTON         FAIR      36  36 100 NW9       30.03R
MANDAN         FAIR      36  34  93 NW12      30.06R
OAKES            N/A     37  37 100 CALM      29.97R FOG
RUGBY          FAIR      27  25  93 N3        30.09R
STANLEY        CLOUDY    32  32 100 N8        30.14R
TIOGA          CLOUDY    32  32 100 N8        30.18R
$$

CITY           SKY/WX    TMP DP  RH WIND       PRES   REMARKS
GRAND FORKS    CLOUDY    37  34  89 NE9       30.03R
GRAND FORKS AF CLOUDY    37  35  95 NE9       30.04R
DEVILS LAKE    CLEAR     30  21  69 NE7       30.03R
FARGO          LGT RAIN  40  37  89 SE5       30.00R FOG
CANDO          FAIR      27  25  93 N10       30.08R WCI  17
CAVALIER       FAIR      28  27  93 N7        30.08S
GRAFTON        FAIR      30  28  93 N8        30.06R
GWINNER        PTSUNNY   39  39 100 CALM      29.98S
LANGDON        FAIR      28  27  93 NE8       30.06R
ROLLA          FAIR      25  25 100 N12       30.11R WCI  14
WALHALLA       FAIR      28  28 100 NW9       30.10R WCI  20
$$

CITY           SKY/WX    TMP DP  RH WIND       PRES   REMARKS
ABERDEEN       PTCLDY    38  34  85 CALM      29.98S
MOBRIDGE       CLEAR     42  37  82 NW10      30.02R
BUFFALO          N/A     38  31  76 NW13      30.08R
RAPID CITY     CLEAR     42  32  67 NW12      30.14S
GLASGOW        CLEAR     29  27  92 NE7       30.22R
SIDNEY         CLOUDY    36  32  87 NW8       30.21R
WOLF POINT     CLOUDY    37  33  85 NW3       30.23R
GLENDIVE       CLEAR     34  30  86 NW9       30.19R
MILES CITY     CLEAR     35  29  78 NW8       30.19R
BAKER          CLEAR     32  30  92 W7        30.17R
$$

CITY           SKY/WX    TMP DP  RH WIND       PRES   REMARKS
BILLINGS       CLEAR     45  29  53 SW10      30.24R
GREAT FALLS    CLEAR     38  33  82 S10       30.22R
REGINA         CLOUDY    34  30  86 N8        30.24R
ESTEVAN        CLOUDY    36  32  87 N6        30.17R
$$




USA.gov is the U.S. government's official web portal to all federal, state and local government web resources and services.